Location: Beacon Field Observatory
(38.7700°N, 77.0829°W)
Time: 15:10:33
(UTC-05:00)

UKube-1 - Pass Details

Date: 11 December 2019
Orbit: 613 x 618 km, 98.5° (Epoch: 28 January)

Event Time Altitude Azimuth Distance (km) Brightness Sun altitude
Rises 04:37:56 0° 161° (SSE) 2,865 ? -30.0°
Reaches altitude 10° 04:40:06 10° 159° (SSE) 1,965 ? -29.6°
Enters shadow 04:41:58 26° 156° (SSE) 1,227 ? -29.2°
